Powrót do katalogu

COSMOS 2251 DEB

AktywnyLEO
NORAD 34818·DEBRIS·🇷🇺 Russia

Wystrzelony Jun 16, 1993 z Plesetsk Cosmodrome

Loading…

Następne Przeloty (najbliższe 24 godziny)

TLE

ŚwieżeSource: Space-Track

Epoka: Sep 14, 2026, 09:49 UTC

1 34818U 93036ABH 26257.40922603  .00000350  00000-0  12572-3 0  9991
2 34818  74.0360 149.9187 0024504 164.5110 313.4265 14.37277213913305

Śledź COSMOS 2251 DEB w czasie rzeczywistym z AllMySat

Download on the App Store